THOR ABLESTAR DEB, 132

Orbit data source: Space-Track

THOR ABLESTAR DEB, 132 is space debris in LEO originally from a launch on Thu, 29 Jun 1961 UTC launched from the Air Force Eastern Test Range (AFETR). Debris objects in space refer to the collection of defunct objects orbiting the Earth. Examples of debris include non-operational satellites, rocket bodies, and fragments generated from explosions, collisions, or faulty payload assembly.

Loading next visibility...
Identifier
132, 1961-015S
Orbit
LEO
Last TLE update
10 hours ago
Origin
Manufacturer
Unknown
Mission
Spacecraft
Bus & Motor
Unknown
Mass
Unknown
Launch date (UTC)
1961-06-29 (64 years ago)
Launch vehicle
Unknown
Launch site
Air Force Eastern Test Range (AFETR)
Object type
Payload
Rocket body
Debris
Shape & HBR
Unknown
Radar Cross Section
Medium (>0.1 m² and <1 m²)

Expand to show TLE details & history

TLE from 10 hours ago
0 THOR ABLESTAR DEB
1 00132U 61015S   25188.88710894 -.00000021  00000-0  42268-4 0  9998
2 00132  66.6604 102.9233 0068109  59.2390 301.5372 13.94701246255659
Epoch: 2025-07-07T21:17Z
TLE epoch observation values (Epoch: 2025-07-07T21:17:26.212Z)
Latitude
-0.00008°
Longitude
-142.52595°
Altitude
888.544 km
Speed
7.421 km/s
True Right ascension
06h 51m 41s
True Declination
0° 00' 00"
Sunlit
Object was in daylight at epoch
Visualization orbit readout
Latitude
-16.70597°
Longitude
43.89325°
Altitude
955.291 km
Speed
7.355 km/s
Apparent Right ascension
20h 06m 05s
Apparent Declination
-70° 22' 49"
Sunlit
Object is in full shadow
Visualization observer readout
Local Sidereal Time
18:55:38
Azimuth
173.751° S
Elevation
-21.036°
Doppler factor
1
Orbital elements
Apogee altitude
960.251 km
Perigee altitude
860.965 km
Semi-major axis
7,288.745 km
Eccentricity
0.00681
Inclination
66.6604°
RAAN
102.9233°
Arg. of periapsis
59.239°
True anomaly
Unknown
Mean anomaly
301.5372°
Eccentric anomaly
Unknown
Mean motion
3.4879 °/min
Orbital period
103.21 mins
BSTAR
0.000042268
Loading maneuver chart data...
Loading SW <> Apogee altitude chart data...

THOR ABLESTAR DEB Visibility forecast

Observer location: undefined°, undefined°

Span
Click to sort rows by Start time (UTC) header in descending order
Start Az.
Max El. time (UTC)
Max El. Az.
Max El.
End time (UTC)
End Az.
10 mins2025-07-08 19:47:10.901Z202.709° SW2025-07-08 19:52:10.901Z121.366° SE44.588°2025-07-08 19:57:10.901Z31.818° NE
6 mins2025-07-08 21:36:10.901Z282.801° WNW2025-07-08 21:39:10.901Z319.077° NNW17.642°2025-07-08 21:42:10.901Z353.978° N
5 mins2025-07-09 03:05:10.901Z17.104° NNE2025-07-09 03:07:10.901Z39.403° NE14.533°2025-07-09 03:10:10.901Z71.189° E
10 mins2025-07-09 04:50:10.901Z336.125° NNW2025-07-09 04:54:10.901Z43.074° NE44.056°2025-07-09 05:00:10.901Z145.899° SSE
5 mins2025-07-09 06:38:10.901Z274.507° WNW2025-07-09 06:40:10.901Z251.534° W15.209°2025-07-09 06:43:10.901Z221.176° SW
|